Regional Weather Roundup
Issued by NWS

Home | Current Version | Previous Version | Text Only | Print | Product List | Glossary On
Versions: 1 2 3 4 5 6 7 8 9 10 11 12 13 14 15 16 17 18 19 20 21 22 23 24 25 26 27 28 29 30 31 32 33 34 35 36 37 38 39 40 41 42 43 44 45 46 47 48 49 50
000
ASUS44 KFWD 041115
RWRTX
NORTH TEXAS HOURLY WEATHER ROUNDUP
NATIONAL WEATHER SERVICE FORT WORTH TX
600 AM CDT WED MAY 04 2016

NOTE: "FAIR" INDICATES FEW OR NO CLOUDS BELOW 12,000 FEET WITH NO
SIGNIFICANT WEATHER AND/OR OBSTRUCTIONS TO VISIBILITY.

TXZ118-119-041200-
DALLAS/FORT WORTH METROPLEX

CITY           SKY/WX    TMP DP  RH WIND       PRES   REMARKS
DFW AIRPORT    CLEAR     59  53  80 W7        30.05S
DALLAS LOVE    CLEAR     57  52  83 CALM      30.05S
FTW MEACHAM    CLEAR     55  52  89 CALM      30.06R
DAL-EXECUTIVE  CLEAR     56  52  86 W6        30.05S
FTW-ALLIANCE   CLEAR     50  49  96 CALM      30.06R
FTW-NAS-JRB    CLEAR     57  51  80 W3        30.06S
FTW-SPINKS     CLEAR     50  49  95 CALM      30.08R
ARLINGTON      CLEAR     54  50  86 CALM      30.06S
GRAND PRAIRIE  CLEAR     58  53  84 CALM      30.07S
MESQUITE       CLEAR     55  51  84 W3        30.05S
LANCASTER      CLEAR     52  49  88 W3        30.06S
$$

TXZ091>094-102>105-117-120-121-131>134-041200-
NORTH CENTRAL TEXAS

CITY           SKY/WX    TMP DP  RH WIND       PRES   REMARKS
SHRMAN/DENISON CLEAR     47  44  88 SW5       30.05S
GAINESVILLE    CLEAR     51  49  93 CALM      30.07S
BOWIE          CLEAR     53  52  94 W7        30.06S
BRIDGEPORT     CLEAR     52  52 100 W5        30.09R
DECATUR        CLEAR     54  53  98 W7        30.07R
DENTON         CLEAR     51  50  96 CALM      30.06R FOG
MCKINNEY       CLEAR     54  52  93 CALM      30.05R
GREENVILLE     CLEAR     52  50  93 CALM      30.04S
ROCKWALL       CLEAR     57  55  91 CALM      30.04S
TERRELL        CLEAR     53  49  86 CALM      30.05S
WAXAHACHIE     CLEAR     53  53 100 W3        30.07S
CLEBURNE       CLEAR     52  52 100 CALM      30.08S
GRANBURY         N/A     51  49  94 CALM      30.09R
$$

TXZ083>090-098>101-113>116-127>130-139>142-154-155-041200-
WESTERN NORTH TEXAS

CITY           SKY/WX    TMP DP  RH WIND       PRES   REMARKS
WICHITA FALLS  CLEAR     53  51  93 W10       30.06S
WF-KICKAPOO    CLEAR     56  52  86 W7        30.08S
VERNON         CLEAR     52  47  83 W8        30.09R
ABILENE        CLEAR     51  50  96 S3        30.13S
ABILENE-DYESS  CLEAR     51  50  97 SW2       30.11S
BRECKENRIDGE   CLEAR     52  51  98 SW3       30.10S
GRAHAM         CLEAR     46  46 100 CALM      30.07S
MINERAL WELLS  CLEAR     50  49  96 NW3       30.07R
STEPHENVILLE   CLEAR     55  51  86 CALM      30.11R
COMANCHE       CLEAR     56  52  86 MISG      30.10R
BROWNWOOD      CLEAR     50  50 100 CALM      30.12S
COLEMAN        CLEAR     50  49  97 CALM      30.13R
$$

TXZ143>147-156>162-174-175-041200-
CENTRAL TEXAS

CITY           SKY/WX    TMP DP  RH WIND       PRES   REMARKS
WACO           CLEAR     51  49  92 W6        30.07S
WACO-MCGREGOR  CLEAR     51  49  92 W3        30.08R
HILLSBORO      CLEAR     49  49  97 CALM      30.07S
CORSICANA      CLEAR     53  49  86 W5        30.07S
MEXIA          CLEAR     55  51  86 W6        30.06S
HEARNE         CLEAR     49  49  97 CALM      30.08R
CAMERON        CLEAR     54  51  90 W3        30.08R
TEMPLE         CLEAR     52  51  97 CALM      30.09R
KILLEEN        CLEAR     57  50  76 VRB3      30.08R
KILLEEN-SKYLRK CLEAR     52  50  93 CALM      30.09
FORT HOOD      CLEAR     54  50  84 NW5       30.07R
GATESVILLE     CLEAR     54  52  94 MISG      30.11R
HAMILTON       CLEAR     53  50  89 W8        30.10R
LAMPASAS       CLEAR     55  51  83 W5        30.09R
$$

TXZ095>097-106>112-122>126-135>138-148>153-164>167-041200-
EAST TEXAS

CITY           SKY/WX    TMP DP  RH WIND       PRES   REMARKS
PARIS          PTCLDY    54  43  66 W5        30.03S
SULPHUR SPRNGS CLEAR     54  50  87 SW3       30.06R
MOUNT PLEASANT CLEAR     51  50  96 CALM      30.04S
GILMER         CLEAR     50  49  97 CALM      30.03S
MINEOLA        CLEAR     52  50  93 CALM      30.05S
TYLER          CLEAR     53  49  86 CALM      30.04R
LONGVIEW       CLEAR     51  49  92 W5        30.02S
MARSHALL       CLEAR     51  49  92 CALM      30.04S
ATHENS         CLEAR     50  50 100 CALM      30.04S
PALESTINE      CLEAR     51  50  95 CALM      30.06S
JACKSONVILLE   CLEAR     58  47  67 CALM      30.06S
HENDERSON      CLEAR     50  49  98 CALM      30.05R
CENTER         FAIR      53  52  95 CALM      30.02S
NACOGDOCHES    CLEAR     48  46  93 CALM      30.03S
LUFKIN         CLEAR     51  50  96 CALM      30.04R
$$

SUPPLEMENTAL OBSERVATIONS (CENTRAL)

CITY           SKY/WX    TMP DP  RH WIND       PRES   REMARKS
LAKE TEXOMA      N/A     57  54  88 W9          N/A
CADDO GRASSLND   N/A     52  50  93 S1          N/A
PAT MAYSE LAKE   N/A     57  54  88 SW5         N/A
GREENVILLE       N/A     52  48  87 SW3         N/A
CEDAR HILL       N/A     52  50  93 S1          N/A
ATHENS           N/A     52  50  93 CALM        N/A
MCGREGOR         N/A     50  46  87 SW1         N/A
TEMPLE           N/A     57  50  77 W5          N/A
$$

SUPPLEMENTAL OBSERVATIONS (WEST)

CITY           SKY/WX    TMP DP  RH WIND       PRES   REMARKS
MILLERS CREEK    N/A     52  50  93 SW5         N/A
POSSUM KINGDOM   N/A     52  50  93 W5          N/A
LBJ GRASSLAND    N/A     52  50  93 W1          N/A
GRANBURY         N/A     52  50  93 SW1         N/A
HAMBY            N/A     48  46  93 CALM        N/A
IVIE RESERVOIR   N/A     54  50  87 NW6         N/A
COLORADO BEND    N/A     54  48  82 NW3         N/A
$$

SUPPLEMENTAL OBSERVATIONS (EAST)

CITY           SKY/WX    TMP DP  RH WIND       PRES   REMARKS
CLARKSVILLE      N/A     52  50  93 CALM        N/A
CADDO LAKE       N/A     46  43  87 CALM        N/A
GILMER           N/A     50  48  93 CALM        N/A
HENDERSON        N/A     52  50  93 CALM        N/A
LUFKIN           N/A     52  50  93 MISG        N/A
N SABINE NF      N/A     50  46  87 MISG        N/A
S SABINE NF      N/A     50  48  93 CALM        N/A
$$

SUPPLEMENTAL OBSERVATIONS ARE A COLLECTION OF AUTOMATED INSTRUMENTS
THAT ARE MAINTAINED BY A VARIETY OF FEDERAL AND STATE AGENCIES.
CERTAIN ELEMENTS...SUCH AS HUMIDITY VALUES AND SUSTAINED WIND
SPEEDS...MAY BE APPROXIMATED.





USA.gov is the U.S. government's official web portal to all federal, state and local government web resources and services.